• în România
  • Lista ţărilor
  • Pe 7 zile
  • Temperatura apei
  • Hartă satelitară
  • Meteo pe hartă
  • Widget-uri
  • user-avatar
    Intrare

    Meteo pe oră la Coasta de Aur

    Astăzi, 22 Ianuarie, Luni

    Timp Temperatura Precipitaţii Vânt Presiune Umiditate
    00:00 +21°C° 0 mm 2 m/s 756 mmHg 89%
    01:00 +22°C° 0 mm 1 m/s 755 mmHg 90%
    02:00 +21°C° 0 mm 2 m/s 755 mmHg 91%
    03:00 +21°C° 0 mm 2 m/s 755 mmHg 92%
    04:00 +20°C° 0 mm 2 m/s 755 mmHg 92%
    05:00 +21°C° 0 mm 2 m/s 755 mmHg 87%
    06:00 +24°C° 0 mm 1 m/s 755 mmHg 82%
    07:00 +25°C° 0 mm 1 m/s 756 mmHg 77%
    08:00 +27°C° 0 mm 1 m/s 756 mmHg 66%
    09:00 +30°C° 0 mm 2 m/s 755 mmHg 54%
    10:00 +32°C° 0 mm 1 m/s 756 mmHg 46%
    11:00 +34°C° 0 mm 2 m/s 755 mmHg 43%
    12:00 +35°C° 0 mm 2 m/s 755 mmHg 40%
    13:00 +35°C° 0 mm 3 m/s 754 mmHg 37%
    14:00 +35°C° 0 mm 3 m/s 754 mmHg 40%
    15:00 +34°C° 0 mm 4 m/s 754 mmHg 43%
    16:00 +33°C° 0 mm 4 m/s 754 mmHg 45%
    17:00 +30°C° 0 mm 4 m/s 754 mmHg 54%
    18:00 +28°C° 0 mm 3 m/s 754 mmHg 62%
    19:00 +26°C° 0 mm 3 m/s 755 mmHg 70%
    20:00 +25°C° 0 mm 3 m/s 755 mmHg 76%
    21:00 +24°C° 0 mm 3 m/s 756 mmHg 81%
    22:00 +23°C° 0 mm 2 m/s 756 mmHg 87%
    23:00 +23°C° 0 mm 2 m/s 756 mmHg 89%

    Mâine, 23 Ianuarie, Marţi

    Timp Temperatura Precipitaţii Vânt Presiune Umiditate
    00:00 +23°C° 0 mm 2 m/s 756 mmHg 90%
    01:00 +22°C° 0 mm 1 m/s 755 mmHg 91%
    02:00 +22°C° 0 mm 1 m/s 755 mmHg 92%
    03:00 +22°C° 0 mm 1 m/s 755 mmHg 92%
    04:00 +22°C° 0 mm 1 m/s 755 mmHg 92%
    05:00 +23°C° 0 mm 1 m/s 755 mmHg 88%
    06:00 +25°C° 0 mm 1 m/s 755 mmHg 83%
    07:00 +26°C° 0 mm 1 m/s 755 mmHg 78%
    08:00 +27°C° 0 mm 1 m/s 755 mmHg 69%
    09:00 +29°C° 0 mm 2 m/s 755 mmHg 61%
    10:00 +31°C° 0 mm 2 m/s 755 mmHg 52%
    11:00 +33°C° 0 mm 3 m/s 755 mmHg 48%
    12:00 +34°C° 0 mm 3 m/s 755 mmHg 44%
    13:00 +35°C° 0 mm 3 m/s 754 mmHg 41%
    14:00 +34°C° 0 mm 4 m/s 754 mmHg 44%
    15:00 +34°C° 0 mm 4 m/s 754 mmHg 46%
    16:00 +33°C° 0 mm 4 m/s 754 mmHg 49%
    17:00 +30°C° 0 mm 4 m/s 754 mmHg 57%
    18:00 +28°C° 0 mm 4 m/s 754 mmHg 65%
    19:00 +26°C° 0 mm 3 m/s 755 mmHg 73%
    20:00 +25°C° 0 mm 3 m/s 755 mmHg 78%
    21:00 +24°C° 0 mm 3 m/s 755 mmHg 83%
    22:00 +22°C° 0 mm 3 m/s 756 mmHg 87%
    23:00 +22°C° 0 mm 3 m/s 755 mmHg 88%

    Poimâine, 24 Ianuarie, Miercuri

    Timp Temperatura Precipitaţii Vânt Presiune Umiditate
    00:00 +22°C° 0 mm 3 m/s 755 mmHg 89%
    01:00 +23°C° 0 mm 2 m/s 755 mmHg 90%
    02:00 +23°C° 0 mm 2 m/s 755 mmHg 91%
    03:00 +23°C° 0 mm 2 m/s 754 mmHg 91%
    04:00 +23°C° 0 mm 1 m/s 754 mmHg 92%
    05:00 +24°C° 0 mm 2 m/s 754 mmHg 88%
    06:00 +25°C° 0 mm 2 m/s 754 mmHg 83%
    07:00 +26°C° 0 mm 3 m/s 755 mmHg 78%
    08:00 +28°C° 0,1 mm 3 m/s 755 mmHg 69%
    09:00 +30°C° 0,1 mm 3 m/s 755 mmHg 60%
    10:00 +31°C° 0,1 mm 3 m/s 755 mmHg 51%
    11:00 +33°C° 0,1 mm 4 m/s 755 mmHg 51%
    12:00 +33°C° 0,1 mm 4 m/s 754 mmHg 50%
    13:00 +34°C° 0,1 mm 4 m/s 754 mmHg 49%
    14:00 +33°C° 0 mm 5 m/s 753 mmHg 52%
    15:00 +33°C° 0 mm 5 m/s 753 mmHg 54%
    16:00 +32°C° 0 mm 5 m/s 753 mmHg 57%
    17:00 +29°C° 0 mm 5 m/s 753 mmHg 64%
    18:00 +28°C° 0 mm 4 m/s 753 mmHg 71%
    19:00 +26°C° 0 mm 4 m/s 754 mmHg 79%
    20:00 +26°C° 0 mm 4 m/s 754 mmHg 83%
    21:00 +25°C° 0 mm 4 m/s 755 mmHg 88%
    22:00 +24°C° 0 mm 3 m/s 755 mmHg 92%
    23:00 +24°C° 0,1 mm 3 m/s 754 mmHg 93%

    25 Ianuarie, Joi

    Timp Temperatura Precipitaţii Vânt Presiune Umiditate
    00:00 +24°C° 0,1 mm 2 m/s 754 mmHg 94%
    01:00 +23°C° 0,1 mm 2 m/s 754 mmHg 95%
    02:00 +23°C° 0,1 mm 2 m/s 753 mmHg 95%
    03:00 +23°C° 0,1 mm 2 m/s 753 mmHg 96%
    04:00 +23°C° 0,1 mm 2 m/s 753 mmHg 96%
    05:00 +24°C° 0 mm 2 m/s 754 mmHg 92%
    06:00 +25°C° 0 mm 2 m/s 754 mmHg 89%
    07:00 +26°C° 0 mm 3 m/s 755 mmHg 85%
    08:00 +28°C° 0 mm 3 m/s 755 mmHg 75%
    09:00 +30°C° 0 mm 4 m/s 755 mmHg 66%
    10:00 +32°C° 0 mm 4 m/s 755 mmHg 56%
    11:00 +33°C° 0 mm 5 m/s 754 mmHg 53%
    12:00 +34°C° 0 mm 5 m/s 754 mmHg 50%
    13:00 +34°C° 0 mm 5 m/s 753 mmHg 47%
    14:00 +34°C° 0,1 mm 5 m/s 753 mmHg 49%
    15:00 +33°C° 0,1 mm 5 m/s 753 mmHg 51%
    16:00 +33°C° 0,1 mm 5 m/s 753 mmHg 53%
    17:00 +30°C° 0 mm 5 m/s 753 mmHg 61%
    18:00 +29°C° 0 mm 5 m/s 754 mmHg 69%
    19:00 +27°C° 0 mm 4 m/s 754 mmHg 77%
    20:00 +26°C° 0 mm 4 m/s 754 mmHg 81%
    21:00 +26°C° 0 mm 4 m/s 754 mmHg 86%
    22:00 +25°C° 0 mm 4 m/s 755 mmHg 91%
    23:00 +25°C° 0 mm 4 m/s 754 mmHg 92%

    26 Ianuarie, Vineri

    Timp Temperatura Precipitaţii Vânt Presiune Umiditate
    00:00 +25°C° 0 mm 4 m/s 754 mmHg 93%
    01:00 +23°C° 0 mm 4 m/s 754 mmHg 94%
    02:00 +23°C° 0,1 mm 4 m/s 753 mmHg 94%
    03:00 +23°C° 0,1 mm 4 m/s 753 mmHg 94%
    04:00 +24°C° 0,1 mm 3 m/s 753 mmHg 95%
    05:00 +25°C° 0,2 mm 4 m/s 754 mmHg 92%
    06:00 +26°C° 0,2 mm 4 m/s 754 mmHg 89%
    07:00 +26°C° 0,2 mm 4 m/s 755 mmHg 86%
    08:00 +28°C° 0,1 mm 5 m/s 755 mmHg 78%
    09:00 +30°C° 0,1 mm 5 m/s 755 mmHg 69%
    10:00 +32°C° 0,1 mm 6 m/s 755 mmHg 60%
    11:00 +33°C° 0 mm 6 m/s 754 mmHg 56%
    12:00 +34°C° 0 mm 6 m/s 754 mmHg 52%
    13:00 +35°C° 0 mm 6 m/s 753 mmHg 48%
    14:00 +34°C° 0 mm 6 m/s 753 mmHg 49%
    15:00 +34°C° 0 mm 6 m/s 753 mmHg 51%
    16:00 +33°C° 0 mm 6 m/s 753 mmHg 53%
    17:00 +32°C° 0 mm 5 m/s 753 mmHg 62%
    18:00 +29°C° 0 mm 5 m/s 754 mmHg 71%
    19:00 +27°C° 0 mm 5 m/s 754 mmHg 79%
    20:00 +26°C° 0,1 mm 5 m/s 754 mmHg 84%
    21:00 +26°C° 0,1 mm 5 m/s 755 mmHg 88%
    22:00 +25°C° 0,1 mm 5 m/s 755 mmHg 93%
    23:00 +25°C° 0,2 mm 5 m/s 754 mmHg 93%

    27 Ianuarie, Sâmbătă

    Timp Temperatura Precipitaţii Vânt Presiune Umiditate
    00:00 +25°C° 0,2 mm 5 m/s 754 mmHg 94%
    01:00 +23°C° 0,2 mm 5 m/s 754 mmHg 94%
    02:00 +23°C° 0,3 mm 5 m/s 753 mmHg 95%
    03:00 +23°C° 0,3 mm 5 m/s 753 mmHg 95%
    04:00 +23°C° 0,3 mm 5 m/s 753 mmHg 95%
    05:00 +25°C° 0,2 mm 5 m/s 753 mmHg 92%
    06:00 +26°C° 0,2 mm 5 m/s 754 mmHg 89%
    07:00 +26°C° 0,2 mm 5 m/s 754 mmHg 86%
    08:00 +28°C° 0,2 mm 6 m/s 754 mmHg 79%
    09:00 +29°C° 0,2 mm 6 m/s 754 mmHg 73%
    10:00 +30°C° 0,2 mm 6 m/s 754 mmHg 67%
    11:00 +32°C° 0,1 mm 6 m/s 753 mmHg 60%
    12:00 +33°C° 0,1 mm 7 m/s 753 mmHg 54%
    13:00 +34°C° 0,1 mm 7 m/s 753 mmHg 47%
    14:00 +34°C° 0 mm 7 m/s 752 mmHg 49%
    15:00 +33°C° 0 mm 7 m/s 752 mmHg 50%
    16:00 +33°C° 0 mm 7 m/s 752 mmHg 51%
    17:00 +30°C° 0 mm 7 m/s 752 mmHg 60%
    18:00 +28°C° 0 mm 7 m/s 753 mmHg 68%
    19:00 +26°C° 0 mm 7 m/s 753 mmHg 77%
    20:00 +26°C° 0,1 mm 6 m/s 753 mmHg 81%
    21:00 +24°C° 0,1 mm 6 m/s 753 mmHg 86%
    22:00 +23°C° 0,1 mm 6 m/s 753 mmHg 90%
    23:00 +23°C° 0,2 mm 6 m/s 752 mmHg 90%
    Arată mai mult